Regional Weather Roundup
Issued by NWS Green Bay, WI

Home | Current Version | Previous Version | Text Only | Print | Product List | Glossary On
Versions: 1 2 3 4 5 6 7 8 9 10 11 12 13 14 15 16 17 18 19 20 21 22 23 24 25 26 27 28 29 30 31 32 33 34 35 36 37 38 39 40 41 42 43 44 45 46 47 48 49 50
325
ASUS43 KGRB 200601
RWRGRB

NORTH-CENTRAL AND NORTHEAST WISCONSIN REGIONAL WEATHER ROUNDUP
NATIONAL WEATHER SERVICE GREEN BAY WI
100 AM CDT SUN AUG 20 2017

WIZ005-009-010>012-018-019-200700-
NORTH CENTRAL WISCONSIN

CITY           SKY/WX    TMP DP  RH WIND       PRES   REMARKS
IRONWOOD       CLOUDY    65  59  81 SW8       29.93S
MANITOWISH WTR NOT AVBL
ARBOR VITAE    NOT AVBL
EAGLE RIVER    NOT AVBL
LAND O LAKES   NOT AVBL
RHINELANDER    CLEAR     57  57 100 CALM      29.98R FOG
PHILLIPS       NOT AVBL
ANTIGO         NOT AVBL
TOMAHAWK       NOT AVBL
MERRILL        NOT AVBL
$$

WIZ013-073-200700-
NORTHEAST WISCONSIN

CITY           SKY/WX    TMP DP  RH WIND       PRES   REMARKS
IRON MOUNTAIN  CLEAR     60  56  86 CALM      29.94R
MARINETTE      CLEAR     64  60  87 CALM      29.95R
$$

WIZ017-030-035>037-045-200700-
CENTRAL WISCONSIN

CITY           SKY/WX    TMP DP  RH WIND       PRES   REMARKS
MEDFORD        NOT AVBL
WAUSAU         CLEAR     60  59  96 SE3       29.96R
MOSINEE        NOT AVBL
MARSHFIELD     CLEAR     61  58  90 SW5       29.97R
WISC RAPIDS    CLEAR     58  58 100 CALM      29.99R
STEVENS POINT  NOT AVBL
WAUPACA        NOT AVBL
SHAWANO        NOT AVBL
CLINTONVILLE   NOT AVBL
WAUTOMA        CLEAR     58  57  97 CALM      29.98S
$$

WIZ038-039-048-051-200700-
FOX VALLEY

CITY           SKY/WX    TMP DP  RH WIND       PRES   REMARKS
NWS GREEN BAY  CLEAR     60  60 100 CALM      29.96R
APPLETON       NOT AVBL
OSHKOSH        CLEAR     65  59  81 SW5       29.97R
FOND DU LAC    CLEAR     63  59  87 SW5       29.98R
$$

WIZ022-050-052-200700-
EAST CENTRAL WISCONSIN

CITY           SKY/WX    TMP DP  RH WIND       PRES   REMARKS
EPHRAIM        NOT AVBL
WASHINGTON ISL NOT AVBL
STURGEON BAY   CLEAR     65  61  87 SW5       29.96R
MANITOWOC      NOT AVBL
SHEBOYGAN      CLEAR     62  61  96 S3        29.98R
$$

LMZ563-521-522-541>543-200700-
LAKESHORE

STATION/POSITION TIME  TEMP    WIND        PRES    VSBY  WAVE
                       AIR SEA DIR/SP/G                  HT/PER
                 (UTC) (F)     (DEG/KT/KT) (MB)    (MI)  (FT/S)
SHEBOYGAN LKSHOR 0500   70     250/  8/  9 1014.4R
KEWAUNEE LKSHORE 0530   68     320/  3/  5 1013.6R
N MID LAKE BUOY  0450   69 67  230/ 10/ 12 1013.4R         2/ 4
S GREEN BAY BUOY 0500   72 71  240/  8/  8 1013.6
SISTER BAY LKSHO 0518   71     260/  7/  8   N/A
MENOMINEE LKSHOR 0530   69     260/  5/  7 1013.5R
$$




USA.gov is the U.S. government's official web portal to all federal, state and local government web resources and services.